Hourly Data Report for February 04, 2004

TORONTO CITY
ONTARIO

43°40'00.000" N
79°24'00.000" W
112.50 m
6158355
71508
XTO

Download Data

Hourly Data (February 2004)
Hourly Data Report for February 4, 2004
TIME
LST
Temp Definition
°C
Dew Point Definition
°C
Rel Hum Definition
%
Precip. Amount Definition
mm

Wind Dir Definition
10's deg

Wind Spd Definition
km/h
Visibility Definition
km
Stn Press Definition
kPa
Hmdx Definition


Wind Chill Definition


Weather Definition


00:00 2.3 -0.5 82   LegendMM LegendMM LegendMM 100.05     LegendNANA
01:00 2.0 -1.6 77   LegendMM LegendMM LegendMM 100.16     LegendNANA
02:00 0.8 -2.8 77   LegendMM LegendMM LegendMM 100.28     LegendNANA
03:00 -0.1 -4.4 73   LegendMM LegendMM LegendMM 100.40     LegendNANA
04:00 -0.2 -5.5 67   LegendMM LegendMM LegendMM 100.48     LegendNANA
05:00 -1.8 -6.8 69   LegendMM LegendMM LegendMM 100.66     LegendNANA
06:00 -3.1 -8.2 68   LegendMM LegendMM LegendMM 100.80     LegendNANA
07:00 -4.7 -9.9 67   LegendMM LegendMM LegendMM 100.97     LegendNANA
08:00 -5.5 -10.7 67   LegendMM LegendMM LegendMM 101.09     LegendNANA
09:00 -4.5 -10.2 64   LegendMM LegendMM LegendMM 101.23     LegendNANA
10:00 -4.0 -10.3 62   LegendMM LegendMM LegendMM 101.30     LegendNANA
11:00 -2.7 -9.8 58   LegendMM LegendMM LegendMM 101.40     LegendNANA
12:00 -2.5 -9.5 59   LegendMM LegendMM LegendMM 101.41     LegendNANA
13:00 -2.3 -9.7 57   LegendMM LegendMM LegendMM 101.42     LegendNANA
14:00 -2.2 -9.4 58   LegendMM LegendMM LegendMM 101.44     LegendNANA
15:00 -2.9 -9.8 59   LegendMM LegendMM LegendMM 101.47     LegendNANA
16:00 -3.0 -9.6 60   LegendMM LegendMM LegendMM 101.55     LegendNANA
17:00 -3.6 -10.2 60   LegendMM LegendMM LegendMM 101.62     LegendNANA
18:00 -4.4 -10.0 65   LegendMM LegendMM LegendMM 101.74     LegendNANA
19:00 -5.3 -10.8 65   LegendMM LegendMM LegendMM 101.85     LegendNANA
20:00 -5.8 -10.7 68   LegendMM LegendMM LegendMM 101.91     LegendNANA
21:00 -5.8 -10.5 69   LegendMM LegendMM LegendMM 101.96     LegendNANA
22:00 -6.1 -10.3 72   LegendMM LegendMM LegendMM 102.00     LegendNANA
23:00 -6.7 -10.7 73   LegendMM LegendMM LegendMM 102.03     LegendNANA

Notes on Data Quality.

Legend

  • E = Estimated
  • M = Missing
  • NA = Not Available*
  • [empty] = Indicates an unobserved value
Date modified: